Location: Bottens
(46.6171°N, 6.6605°E)
Time: 07:50:12
(UTC+00:00)

ATLAS 5 CENTAUR R/B - Pass Details

Date: 05 November 2021
Orbit: 497 x 1159 km, 63.4° (Epoch: 25 November)

Event Time Altitude Azimuth Distance (km) Brightness Sun altitude
Rises 19:12:43 0° 323° (NW) 3,042 5.7 -31.3°
Reaches altitude 10° 19:15:25 10° 340° (NNW) 2,236 4.7 -31.7°
Enters shadow 19:16:50 16° 354° (N) 1,919 4.2 -32.0°
